Rotterdam, Netherlands

10:16 PM CEST on September 23, 2017 (GMT +0200)
Rotterdam

Weather History for EHRD - November, 2014

Change the Weather History Date:

Sunday, November 16, 2014

  Actual Average Record
Temperature  
Mean Temperature 45 °F -  
Max Temperature 49 °F 45 °F 60 °F (2006)
Min Temperature 41 °F 36 °F 26 °F (1996)
Degree Days  
Heating Degree Days 20    
Moisture  
Dew Point 47 °F    
Average Humidity 98    
Maximum Humidity 100    
Minimum Humidity 93    
Precipitation  
Precipitation 0.20 in - - ()
Sea Level Pressure  
Sea Level Pressure 29.54 in    
Wind  
Wind Speed 3 mph ()    
Max Wind Speed 8 mph    
Max Gust Speed -    
Visibility 2.6 miles    
Events Rain    
Averages and records for this station are not official NWS values.
T = Trace of Precipitation, MM = Missing Value Source: Averaged Metar Reports

Daily Weather History Graph

Daily Weather History Graph

Search for Another Location

Airport or City:

Trip Planner

Search our weather history database for the weather conditions in past years. The results will help you decide how hot, cold, wet, or windy it might be!

Date:

Astronomy

Nov. 16, 2014 Rise Set
Actual Time 8:03 AM CET 4:50 PM CET
Civil Twilight 7:25 AM CET 5:27 PM CET
Nautical Twilight 6:44 AM CET 6:08 PM CET
Astronomical Twilight 6:04 AM CET 6:48 PM CET
Moon 1:10 AM CET (11/16) 2:16 PM CET (11/16)
Length of Visible Light 10h 01m
Length of Day
8h 46m
Waning Crescent, 33% of the Moon is Illuminated
Nov 16
Waning Crescent
Nov 22
New
Nov 29
First Quarter
Dec 6
Full
Dec 14
Last Quarter

Hourly Weather History & Observations

Time (CET) Temp. Windchill Dew Point Humidity Pressure Visibility Wind Dir Wind Speed Gust Speed Precip Events Conditions
12:00 AM 44 °F - 43 °F 96% 29.59 in 2 mi East 2.2 mph - -   Mist
12:25 AM 46.4 °F 44.3 °F 46.4 °F 100% 29.59 in 3.1 mi East 4.6 mph - N/A   Mist
12:55 AM 46.4 °F 44.3 °F 46.4 °F 100% 29.59 in 3.7 mi ESE 4.6 mph - N/A   Overcast
1:00 AM 47 °F - 46 °F 96% 29.60 in 3 mi ESE 4.5 mph - -   Mist
1:25 AM 46.4 °F 44.3 °F 46.4 °F 100% 29.59 in 3.1 mi ESE 4.6 mph - N/A   Overcast
1:55 AM 46.4 °F - 46.4 °F 100% 29.56 in 3.7 mi SE 1.2 mph - N/A   Unknown
2:00 AM 46 °F - 45 °F 96% 29.59 in 3 mi SSE 2.2 mph - -   Mist
2:25 AM 46.4 °F 45.2 °F 44.6 °F 93% 29.59 in - East 3.5 mph - N/A   Mist
2:55 AM 46.4 °F 45.2 °F 46.4 °F 100% 29.56 in 2.8 mi East 3.5 mph - N/A   Mist
3:00 AM 46 °F - 46 °F 97% 29.59 in 3 mi East 2.2 mph - -   Mist
3:25 AM 44.6 °F - 44.6 °F 100% 29.56 in 1.7 mi SE 1.2 mph - N/A   Mist
3:55 AM 44.6 °F 43.1 °F 44.6 °F 100% 29.56 in 1.7 mi East 3.5 mph - N/A   Mist
4:00 AM 45 °F - 45 °F 100% 29.57 in 2 mi ESE 4.5 mph - -   Mist
4:25 AM 44.6 °F - 44.6 °F 100% 29.56 in 1.7 mi SE 2.3 mph - N/A   Mist
4:55 AM 46.4 °F - 44.6 °F 93% 29.56 in 1.7 mi SSE 1.2 mph - N/A   Mist
5:00 AM 45 °F - 45 °F 99% 29.57 in 1 mi SSE 2.2 mph - -   Mist
5:25 AM 44.6 °F - 44.6 °F 100% 29.56 in 0.9 mi Variable 2.3 mph - N/A   Mist
5:55 AM 46.4 °F 44.3 °F 44.6 °F 93% 29.56 in 1.6 mi ENE 4.6 mph - N/A   Partly Cloudy
6:00 AM 46 °F - 45 °F 96% 29.57 in 1 mi East 2.2 mph - - Rain Light Rain
6:25 AM 46.4 °F 45.2 °F 46.4 °F 100% 29.56 in 1.9 mi East 3.5 mph - N/A   Drizzle
6:55 AM 46.4 °F 45.2 °F 46.4 °F 100% 29.56 in 2.2 mi ENE 3.5 mph - N/A   Drizzle
7:00 AM 46 °F - 46 °F 100% 29.57 in 2 mi East 4.5 mph - - Rain Drizzle
7:25 AM 46.4 °F 44.3 °F 46.4 °F 100% 29.56 in - East 4.6 mph - N/A Rain Light Rain
7:55 AM 46.4 °F 44.3 °F 46.4 °F 100% 29.56 in 1.7 mi East 4.6 mph - N/A Rain Light Rain
8:00 AM 46 °F - 46 °F 99% 29.58 in 1 mi East 4.5 mph - - Rain Light Rain
8:25 AM 46.4 °F 45.2 °F 46.4 °F 100% 29.56 in 1.0 mi East 3.5 mph - N/A Rain Light Rain
8:55 AM 46.4 °F 45.2 °F 46.4 °F 100% 29.56 in 1.6 mi East 3.5 mph - N/A Rain Light Rain
9:00 AM 47 °F - 46 °F 97% 29.58 in 1 mi ENE 2.2 mph - - Rain Heavy Rain
9:25 AM 46.4 °F - 46.4 °F 100% 29.56 in 1.3 mi East 2.3 mph - N/A Rain Light Rain
9:55 AM 46.4 °F - 46.4 °F 100% 29.56 in 1.4 mi East 1.2 mph - N/A Rain Light Rain
10:00 AM 47 °F - 47 °F 99% 29.58 in 1 mi East 2.2 mph - - Rain Light Rain
10:25 AM 46.4 °F - 46.4 °F 100% 29.56 in 1.0 mi North 2.3 mph - N/A Rain Light Rain
10:55 AM 48.2 °F - 48.2 °F 100% 29.56 in 1.3 mi Calm Calm - N/A Rain Light Rain
11:00 AM 47 °F - 47 °F 100% 29.57 in 1 mi Calm Calm - - Rain Light Rain
11:25 AM 48.2 °F - 48.2 °F 100% 29.56 in 1.4 mi NNE 1.2 mph - N/A Rain Light Rain
11:55 AM 48.2 °F - 48.2 °F 100% 29.53 in 1.6 mi NNE 1.2 mph - N/A Rain Light Rain Showers
12:00 PM 48 °F - 47 °F 96% 29.56 in 2 mi Calm Calm - - Rain Light Rain
12:25 PM 48.2 °F - 48.2 °F 100% 29.53 in - SSW 2.3 mph - N/A Rain Light Rain
12:55 PM 48.2 °F - 48.2 °F 100% 29.53 in 4.3 mi SW 3.5 mph - N/A Rain Light Rain
1:00 PM 49 °F - 48 °F 94% 29.55 in 4 mi SW 4.5 mph - - Rain Light Rain
1:25 PM 48.2 °F - 48.2 °F 100% 29.53 in 4.3 mi WSW 3.5 mph - N/A Rain Light Rain
1:55 PM 50.0 °F - 48.2 °F 94% 29.50 in - WSW 3.5 mph - N/A   Drizzle
2:00 PM 49 °F - 49 °F 100% 29.53 in 3 mi West 2.2 mph - - Rain Drizzle
2:25 PM 50.0 °F - 48.2 °F 94% 29.50 in 3.7 mi SW 4.6 mph - N/A Rain Light Rain
2:55 PM 50.0 °F - 48.2 °F 94% 29.50 in 5.6 mi WSW 3.5 mph - N/A   Drizzle
3:00 PM 49 °F - 48 °F 96% 29.52 in 6 mi SW 4.5 mph - - Rain Heavy Rain
3:25 PM 50.0 °F - 48.2 °F 94% 29.50 in 4.3 mi SW 2.3 mph - N/A   Drizzle
3:55 PM 48.2 °F - 48.2 °F 100% 29.50 in 3.7 mi West 3.5 mph - N/A   Drizzle
4:00 PM 49 °F - 48 °F 94% 29.51 in 4 mi West 2.2 mph - - Rain Heavy Rain
4:25 PM 48.2 °F - 48.2 °F 100% 29.50 in 3.7 mi West 4.6 mph - N/A Rain Light Rain
4:55 PM 48.2 °F - 46.4 °F 93% 29.50 in 6.2 mi SW 3.5 mph - N/A   Drizzle
5:00 PM 48 °F - 47 °F 96% 29.51 in 4 mi SW 4.5 mph - - Rain Drizzle
5:25 PM 48.2 °F - 48.2 °F 100% 29.50 in 5.0 mi South 4.6 mph - N/A   Drizzle
5:55 PM 48.2 °F - 46.4 °F 93% 29.47 in 5.0 mi SSW 4.6 mph - N/A   Drizzle
6:00 PM 48 °F - 47 °F 96% 29.50 in 4 mi South 4.5 mph - - Rain Drizzle
6:25 PM 48.2 °F - 46.4 °F 93% 29.47 in 3.7 mi South 8.1 mph - N/A   Drizzle
6:55 PM 48.2 °F - 46.4 °F 93% 29.50 in 3.7 mi South 6.9 mph - N/A Rain Light Rain
7:00 PM 48 °F - 47 °F 96% 29.51 in 3 mi South 6.7 mph - - Rain Heavy Rain
7:25 PM 48.2 °F - 48.2 °F 100% 29.50 in 3.7 mi SSW 5.8 mph - N/A Rain Light Rain
7:55 PM 48.2 °F - 48.2 °F 100% 29.50 in 3.1 mi South 5.8 mph - N/A Rain Light Rain
8:00 PM 48 °F - 47 °F 96% 29.51 in 2 mi South 6.7 mph - - Rain Light Rain
8:25 PM 48.2 °F - 48.2 °F 100% 29.50 in - South 4.6 mph - N/A Rain Light Rain
8:55 PM 48.2 °F - 48.2 °F 100% 29.50 in - South 5.8 mph - N/A Rain Light Rain
9:00 PM 48 °F - 47 °F 96% 29.51 in 2 mi South 6.7 mph - - Rain Light Rain
9:25 PM 48.2 °F - 48.2 °F 100% 29.50 in 1.7 mi South 6.9 mph - N/A   Drizzle
9:55 PM 48.2 °F - 48.2 °F 100% 29.50 in 1.6 mi South 4.6 mph - N/A Rain Light Rain
10:00 PM 48 °F - 48 °F 98% 29.51 in 2 mi SSE 4.5 mph - - Rain Drizzle
10:25 PM 48.2 °F - 48.2 °F 100% 29.50 in 1.7 mi SSE 4.6 mph - N/A   Drizzle
10:55 PM 48.2 °F - 48.2 °F 100% 29.47 in 1.6 mi SSE 4.6 mph - N/A Rain Light Rain
11:00 PM 49 °F - 48 °F 94% 29.51 in 1 mi SSE 6.7 mph - - Rain Light Rain
11:25 PM 48.2 °F - 48.2 °F 100% 29.50 in 1.7 mi SSE 6.9 mph - N/A   Overcast
11:55 PM 48.2 °F - 48.2 °F 100% 29.50 in 1.7 mi SSE 6.9 mph - N/A   Light Drizzle